Bellingham, WA
on Thursday, November 29, 2012

Thursday
Previous Day Next Day
Daily Summary
 ActualAverageRecord
Temperature
Mean Temperature °F 40°F  
Max Temperature 60°F 46°F 60°F (2012)
Min Temperature 52°F 34°F 12°F (2006)
Degree Days
Heating Degree Days 9 25  
Month to date heating degree days 628  
Cooling Degree Days 0 0  
Month to date cooling degree days 0  
Year to date cooling degree days 42  
Growing Degree Days6 (Base °F )  
Moisture
Dew Point 42°F   
Average Humidity 60    
Maximum Humidity 74    
Minimum Humidity 46    
Precipitation
Precipitation 0.00 in 0.18 in 0.85 in (2008)
Month to date precipitation 5.61  
Year to date precipitation 31.42  
Wind
Wind Speed 14 mph   
Max Wind Speed 26 mph   
Max Gust Speed 34 mph   
Visibility 10 miles   
Events     

Key: T is trace of precipitation, MM is missing value
Source: NWS Daily Summary
Time(PST)TemperatureDew PointHumidity Pressure Visibility Wind DirectionWind SpeedGust SpeedPrecipitationEvents Conditions
12:53 AM 55.0°F 42.1°F 62% 29.68 in 10.0 miles SSE 12.7 mph - N/A   Mostly Cloudy
1:53 AM 55.9°F 42.1°F 60% 29.65 in 10.0 miles SSE 13.8 mph - N/A   Clear
2:53 AM 57.0°F 42.1°F 57% 29.64 in 10.0 miles SE 15.0 mph 21.9 mph N/A   Scattered Clouds
3:53 AM 57.2°F 41.0°F 55% 29.59 in 10.0 miles SE 20.7 mph 31.1 mph N/A   Mostly Cloudy
4:53 AM 57.9°F 41.0°F 53% 29.58 in 10.0 miles SE 17.3 mph 27.6 mph N/A   Clear
5:53 AM 57.9°F 41.0°F 53% 29.54 in 10.0 miles ESE 11.5 mph - N/A   Mostly Cloudy
6:53 AM 59.0°F 39.9°F 49% 29.52 in 10.0 miles East 11.5 mph - N/A   Overcast
7:53 AM 60.1°F 39.0°F 46% 29.50 in 10.0 miles ESE 6.9 mph 20.7 mph 0.00 in   Overcast
8:53 AM 60.1°F 39.9°F 47% 29.51 in 10.0 miles SSE 13.8 mph 25.3 mph N/A   Overcast
9:53 AM 52.0°F 44.1°F 74% 29.54 in 10.0 miles South 11.5 mph 21.9 mph N/A   Mostly Cloudy
10:53 AM 55.9°F 43.0°F 62% 29.55 in 10.0 miles SE 21.9 mph 31.1 mph N/A   Overcast
11:53 AM 55.0°F 44.1°F 67% 29.55 in 10.0 miles SSE 26.5 mph 34.5 mph N/A   Scattered Clouds
12:53 PM 55.9°F 44.1°F 64% 29.57 in 10.0 miles SSE 15.0 mph 34.5 mph N/A   Overcast
1:53 PM 55.0°F 43.0°F 64% 29.57 in 10.0 miles SSE 13.8 mph 29.9 mph N/A   Overcast
2:53 PM 55.0°F 43.0°F 64% 29.56 in 10.0 miles SSE 16.1 mph 26.5 mph N/A   Overcast
3:00 PM 55.4°F 42.8°F 63% 29.54 in 10.0 miles SSE 11.5 mph 23.0 mph N/A   Overcast
3:12 PM 55.4°F 42.8°F 63% 29.54 in 10.0 miles SSE 17.3 mph 23.0 mph N/A   Overcast
3:53 PM 55.0°F 43.0°F 64% 29.55 in 10.0 miles SE 17.3 mph 25.3 mph N/A   Overcast
4:53 PM 55.0°F 42.1°F 62% 29.54 in 10.0 miles SE 17.3 mph 31.1 mph N/A   Mostly Cloudy
5:53 PM 55.0°F 42.1°F 62% 29.52 in 10.0 miles SE 13.8 mph 23.0 mph N/A   Scattered Clouds
6:53 PM 55.0°F 42.1°F 62% 29.51 in 10.0 miles SE 13.8 mph 20.7 mph N/A   Mostly Cloudy
7:53 PM 55.9°F 41.0°F 57% 29.49 in 10.0 miles SE 16.1 mph 21.9 mph N/A   Partly Cloudy
8:53 PM 54.0°F 41.0°F 62% 29.48 in 10.0 miles SE 9.2 mph - N/A   Clear
9:53 PM 55.9°F 41.0°F 57% 29.48 in 10.0 miles SE 15.0 mph 21.9 mph N/A   Overcast
10:53 PM 55.9°F 41.0°F 57% 29.46 in 10.0 miles SE 13.8 mph 21.9 mph N/A   Mostly Cloudy
11:53 PM 54.0°F 41.0°F 62% 29.44 in 10.0 miles East 6.9 mph - N/A   Clear
Moon Phase
Nov. 29 Dec. 06 Dec. 13 Dec. 20 Dec. 28
Sunrise:07:40 AM (PST) Moon Rise:05:23 PM (PST)
Sunset:04:16 PM (PST) Moon Set:08:31 AM (PST)

Copyright © 2014 The Weather Underground, Inc.